WALDBURG Weather Reports


time (UTC)temp
C
wind
direction
speed
KPH
gust
KPH
rain 1hr
cm
rain 24hr
cm
rain mn
cm
humidity
%
barometer
mb
20260506163210 8 262 24.1 0.0 0.00 0.00 0.61 93 1007.1
20260506160210 8 259 38.6 0.0 0.00 0.00 0.56 93 1007.3
20260506153210 8 239 35.4 0.0 0.00 0.00 0.53 94 1007.2
20260506150210 8 257 51.5 0.0 0.00 0.00 0.53 94 1006.6
20260506143210 8 282 66.0 0.0 0.00 0.00 0.23 91 1006.8
20260506140210 15 261 32.2 0.0 0.00 0.00 0.05 77 1004.8
20260506133211 15 222 17.7 0.0 0.00 0.00 0.05 80 1004.5
20260506130211 13 214 12.9 0.0 0.00 0.00 0.03 81 1004.2
20260506123210 14 225 12.9 0.0 0.00 0.00 0.03 79 1004.6
20260506120210 15 267 17.7 0.0 0.00 0.00 0.03 77 1004.2
20260506113217 15 86 3.2 0.0 0.00 0.00 0.03 69 1004.0
20260506110210 15 201 1.6 0.0 0.00 0.00 0.03 68 1004.4
20260506100213 14 96 11.3 0.0 0.00 0.00 0.03 75 1004.7
20260506093211 13 104 12.9 0.0 0.00 0.00 0.03 81 1004.8
20260506090211 13 242 6.4 0.0 0.00 0.00 0.03 85 1005.1
20260506083211 12 261 6.4 0.0 0.00 0.00 0.03 80 1005.2
20260506080212 12 109 8.0 0.0 0.00 0.00 0.03 83 1004.8
20260506073211 11 265 4.8 0.0 0.00 0.00 0.03 91 1005.2
20260506070212 11 57 3.2 0.0 0.00 0.00 0.03 93 1005.0
20260506060210 9 109 6.4 0.0 0.00 0.00 0.03 94 1005.4
20260506050211 8 59 4.8 0.0 0.00 0.00 0.03 93 1005.6
20260506043211 8 288 0.0 0.0 0.00 0.00 0.03 93 1005.6
20260506040211 8 238 0.0 0.0 0.00 0.00 0.00 92 1005.9
20260506033211 8 238 0.0 0.0 0.00 0.00 0.00 91 1006.1
20260506030212 8 303 3.2 0.0 0.00 0.00 0.00 91 1006.3
20260506023211 8 189 0.0 0.0 0.00 0.00 0.00 92 1006.7
20260506020212 8 189 0.0 0.0 0.00 0.00 0.00 93 1006.9
20260506013211 8 236 3.2 0.0 0.00 0.00 0.00 93 1007.0
20260506010213 8 289 3.2 0.0 0.00 0.00 0.00 93 1007.1
20260506003209 8 200 3.2 0.0 0.00 0.00 0.00 93 1007.7
20260506000211 9 243 3.2 0.0 0.00 0.00 0.00 92 1007.5
20260505233209 9 270 0.0 0.0 0.00 0.00 0.00 92 1008.0
20260505230209 9 282 9.7 0.0 0.00 0.00 0.00 92 1007.7
20260505223210 10 221 1.6 0.0 0.00 0.00 0.00 93 1008.2
20260505220209 10 212 3.2 0.0 0.00 0.00 0.00 93 1008.1
20260505213211 10 277 9.7 0.0 0.00 0.00 0.18 93 1008.1
20260505210215 10 248 0.0 0.0 0.00 0.00 0.18 93 1008.1
20260505203209 10 194 0.0 0.0 0.00 0.00 0.18 92 1008.3
20260505200210 10 182 6.4 0.0 0.00 0.00 0.18 92 1008.1
20260505193209 10 269 22.5 0.0 0.00 0.00 0.18 91 1008.1
20260505190215 11 269 22.5 0.0 0.00 0.00 0.15 90 1007.9
20260505183212 12 277 25.7 0.0 0.00 0.00 0.03 83 1007.5
20260505180211 13 275 17.7 0.0 0.00 0.00 0.03 82 1006.7
20260505173210 14 250 6.4 0.0 0.00 0.00 0.03 83 1006.4
20260505170210 14 281 11.3 0.0 0.00 0.00 0.03 85 1006.1